Location: Peebles
(55.6412°N, 3.1714°W)
Time: 14:38:45
(UTC+01:00)

Terra - Pass Details

Date: 26 September 2021
Orbit: 701 x 703 km, 98.2° (Epoch: 18 October)

Event Time Altitude Azimuth Distance (km) Brightness Sun altitude
Exits shadow 23:13:15 42° 319° (NW) 1,007 2.9 -31.5°
Drops below altitude 10° 23:16:33 10° 339° (NNW) 2,184 5.2 -31.8°
Sets 23:18:51 0° 343° (NNW) 3,106 6.2 -32.0°
